TimeCST,TemperatureF,Dew PointF,Humidity,Sea Level PressureIn,VisibilityMPH,Wind Direction,Wind SpeedMPH,Gust SpeedMPH,PrecipitationIn,Events,Conditions,WindDirDegrees,DateUTC
12:53 AM,42.1,37.0,82,30.27,10.0,Calm,Calm,-,N/A,,Clear,0,2013-11-11 06:53:00
1:53 AM,39.0,36.0,89,30.27,10.0,Calm,Calm,-,N/A,,Clear,0,2013-11-11 07:53:00
2:53 AM,39.9,37.9,93,30.27,10.0,Calm,Calm,-,N/A,,Clear,0,2013-11-11 08:53:00
3:53 AM,39.9,37.0,89,30.26,10.0,Calm,Calm,-,N/A,,Clear,0,2013-11-11 09:53:00
4:53 AM,41.0,37.0,86,30.27,10.0,Calm,Calm,-,N/A,,Clear,0,2013-11-11 10:53:00
5:53 AM,41.0,37.0,86,30.28,10.0,Calm,Calm,-,N/A,,Clear,0,2013-11-11 11:53:00
6:53 AM,39.9,37.0,89,30.30,10.0,Calm,Calm,-,N/A,,Clear,0,2013-11-11 12:53:00
7:53 AM,46.9,39.0,74,30.30,10.0,Calm,Calm,-,N/A,,Clear,0,2013-11-11 13:53:00
8:53 AM,53.1,39.9,61,30.30,10.0,South,5.8,-,N/A,,Clear,170,2013-11-11 14:53:00
9:53 AM,60.1,39.0,46,30.30,10.0,South,6.9,-,N/A,,Clear,190,2013-11-11 15:53:00
10:53 AM,64.0,39.9,41,30.27,10.0,South,5.8,-,N/A,,Clear,180,2013-11-11 16:53:00
11:53 AM,66.9,37.9,34,30.23,10.0,SSW,5.8,-,N/A,,Clear,210,2013-11-11 17:53:00
12:53 PM,69.1,39.0,33,30.20,10.0,Variable,5.8,-,N/A,,Clear,0,2013-11-11 18:53:00
1:53 PM,69.1,41.0,36,30.18,10.0,SSW,5.8,-,N/A,,Scattered Clouds,200,2013-11-11 19:53:00
2:53 PM,70.0,43.0,38,30.17,10.0,Variable,4.6,-,N/A,,Clear,0,2013-11-11 20:53:00
3:53 PM,69.1,43.0,39,30.16,10.0,Variable,3.5,-,N/A,,Clear,0,2013-11-11 21:53:00
4:53 PM,63.0,45.0,52,30.16,10.0,Calm,Calm,-,N/A,,Partly Cloudy,0,2013-11-11 22:53:00
5:53 PM,57.0,46.0,67,30.17,10.0,Calm,Calm,-,N/A,,Partly Cloudy,0,2013-11-11 23:53:00
6:53 PM,57.0,46.0,67,30.19,10.0,Calm,Calm,-,N/A,,Mostly Cloudy,0,2013-11-12 00:53:00
7:53 PM,54.0,46.0,75,30.19,10.0,Calm,Calm,-,N/A,,Scattered Clouds,0,2013-11-12 01:53:00
8:53 PM,51.1,45.0,80,30.20,10.0,Calm,Calm,-,N/A,,Mostly Cloudy,0,2013-11-12 02:53:00
9:53 PM,48.9,44.1,83,30.21,10.0,Calm,Calm,-,N/A,,Clear,0,2013-11-12 03:53:00
10:53 PM,46.9,43.0,86,30.22,10.0,Calm,Calm,-,N/A,,Clear,0,2013-11-12 04:53:00
11:53 PM,48.9,45.0,86,30.22,10.0,Calm,Calm,-,N/A,,Overcast,0,2013-11-12 05:53:00